LAKE MOULTRIE OBSERVATION SITE SC US NWS current weather conditions

sailwx.info

Wind from 017 at 11 knots gusting 13

Air temperature 7.5° C

Last reported at 2019-Nov-15 04:30 UTC.
Time now 2019-Nov-15 05:17 UTC

Location: N 33°15' W 080°02'.
View on Google Maps.

See reports from other nearby stations

  
Tides and Currents Weather Stations Pressure Air Temp Water Temp Dewpoint Dewpoint Depression Visibility Wind Speed Wind Dir Waves Ship Positions
date/time (UTC)wind fromknots sea level pressurealtimeterstation pressurevisibilityair tempwater tempwave heightnotes
2019-Nov-15 04:30 017 11 gusting 13 7.5
2019-Nov-15 04:20 010 9 gusting 11 7.3
2019-Nov-15 04:10 017 8 gusting 11 7.4
2019-Nov-15 04:00 023 9 gusting 11 7.3
2019-Nov-15 03:30 033 7 gusting 10 7.5
2019-Nov-15 03:20 039 8 gusting 9 7.7
2019-Nov-15 03:10 029 8 gusting 9 7.4
2019-Nov-15 03:00 042 8 gusting 10 7.3
2019-Nov-15 02:50 036 7 gusting 10 7.3
2019-Nov-15 02:40 038 9 gusting 12 7.2
2019-Nov-15 02:30 041 9 gusting 11 7.3
2019-Nov-15 02:20 022 9 gusting 11 7.2
2019-Nov-15 02:10 019 10 gusting 12 7.2
2019-Nov-15 02:00 019 11 gusting 12 7.5
2019-Nov-15 01:50 015 10 gusting 14 7.5
2019-Nov-15 01:30 022 12 gusting 13 7.3
2019-Nov-15 01:20 010 11 gusting 13 7.5
2019-Nov-15 01:10 002 11 gusting 12 7.5
2019-Nov-15 01:00 015 9 gusting 11 7.3
2019-Nov-15 00:50 017 10 gusting 13 7.6
2019-Nov-15 00:40 359 9 gusting 12 7.8
2019-Nov-15 00:30 012 10 gusting 12 7.3
2019-Nov-15 00:20 027 9 gusting 11 7.3
2019-Nov-15 00:10 026 10 gusting 12 7.2
2019-Nov-15 00:00 028 10 gusting 12 7.2
2019-Nov-14 23:50 034 11 gusting 13 7.2
2019-Nov-14 23:40 038 11 gusting 13 7.2
2019-Nov-14 23:30 023 9 gusting 13 7.3
2019-Nov-14 23:20 026 10 gusting 12 7.2
2019-Nov-14 23:10 024 10 gusting 12 7.2
2019-Nov-14 23:00 024 10 gusting 12 7.2
2019-Nov-14 22:50 016 11 gusting 13 7.2
2019-Nov-14 22:40 010 11 gusting 12 7.3
2019-Nov-14 22:30 018 11 gusting 12 7.2
2019-Nov-14 22:20 012 8 gusting 11 7.3
2019-Nov-14 22:10 006 9 gusting 11 7.2
2019-Nov-14 22:00 003 10 gusting 12 7.2
2019-Nov-14 21:50 002 9 gusting 11 7.3
2019-Nov-14 21:40 014 8 gusting 10 7.2
2019-Nov-14 21:30 018 9 gusting 11 7.2
2019-Nov-14 21:20 010 9 gusting 10 7.2
2019-Nov-14 21:10 025 9 gusting 12 7.2
2019-Nov-14 21:00 027 10 gusting 11 7.2
2019-Nov-14 20:50 018 9 gusting 10 7.3
2019-Nov-14 20:40 358 8 gusting 11 7.7
2019-Nov-14 19:30 014 10 gusting 12 8.2
2019-Nov-14 19:20 356 9 gusting 11 8.3
2019-Nov-14 19:10 014 7 gusting 10 8.3
2019-Nov-14 19:00
2019-Nov-14 18:30 002 9 gusting 11 8.8
2019-Nov-14 18:20 004 7 gusting 10 8.9
2019-Nov-14 18:10 357 7 gusting 9 8.9
2019-Nov-14 18:00 8.9
2019-Nov-14 17:50 352 6 gusting 9 8.7
2019-Nov-14 17:40 023 5 gusting 8 8.4
2019-Nov-14 16:30 028 7 gusting 10 7.1
2019-Nov-14 16:20 049 9 gusting 11 6.7
2019-Nov-14 16:10 027 7 gusting 10 6.5
2019-Nov-14 16:00 042 7 gusting 11 6.1
2019-Nov-14 15:50 041 7 gusting 9 6.1
2019-Nov-14 15:40 048 7 gusting 9 6.1
2019-Nov-14 15:30 041 7 gusting 11 5.6
2019-Nov-14 15:20 048 8 gusting 10 5.6
2019-Nov-14 15:10 045 7 gusting 10 5.2
2019-Nov-14 15:00 050 10 gusting 12 5.1
2019-Nov-14 14:50 039 10 gusting 11 5.0
2019-Nov-14 14:40 047 9 gusting 10 4.6
2019-Nov-14 14:30 040 9 gusting 10 4.5
2019-Nov-14 14:20 039 9 gusting 12 4.4
2019-Nov-14 14:10 046 10 gusting 12 4.1
2019-Nov-14 14:00 036 10 gusting 13 3.9
2019-Nov-14 13:50 034 9 gusting 12 3.7
2019-Nov-14 13:40 031 10 gusting 13 3.5
2019-Nov-14 13:30 024 10 gusting 13 3.5
2019-Nov-14 13:20 026 10 gusting 13 3.3
2019-Nov-14 13:10 027 9 gusting 11 3.3
2019-Nov-14 13:00 018 10 gusting 11 3.3
2019-Nov-14 12:50 031 9 gusting 13 3.4
2019-Nov-14 12:40 035 9 gusting 13 3.3
2019-Nov-14 12:30 037 10 gusting 13 3.6
2019-Nov-14 12:20 030 10 gusting 13 3.4
2019-Nov-14 12:10 034 11 gusting 13 3.4
2019-Nov-14 12:00 036 10 gusting 12 3.5
2019-Nov-14 11:50 046 10 gusting 13 3.3
2019-Nov-14 11:40 039 10 gusting 12 3.4
2019-Nov-14 11:30 044 10 gusting 12 3.4
2019-Nov-14 11:20 036 9 gusting 11 3.3
2019-Nov-14 11:10 038 9 gusting 11 3.2
2019-Nov-14 11:00 036 9 gusting 11 3.3
2019-Nov-14 10:50 029 8 gusting 10 3.3
2019-Nov-14 10:40 040 8 gusting 10 3.3
2019-Nov-14 10:30 040 9 gusting 11 3.3
2019-Nov-14 10:20 050 10 gusting 12 3.3
2019-Nov-14 10:10 051 10 gusting 12 3.2
2019-Nov-14 10:00 062 10 gusting 12 3.0
2019-Nov-14 09:50 055 9 gusting 11 2.9
2019-Nov-14 09:40 045 9 gusting 11 2.8
2019-Nov-14 09:30 046 9 gusting 13 2.8
2019-Nov-14 09:20 037 11 gusting 13 2.7
2019-Nov-14 09:10 029 9 gusting 11 2.8
2019-Nov-14 09:00 029 9 gusting 10 2.8
2019-Nov-14 08:50 035 8 gusting 11 2.8
2019-Nov-14 08:40 045 9 gusting 13 2.8
2019-Nov-14 08:30 046 10 gusting 12 2.9
2019-Nov-14 08:20 056 11 gusting 14 2.8
2019-Nov-14 08:10 056 11 gusting 15 2.9
2019-Nov-14 08:00 055 12 gusting 15 3.0
2019-Nov-14 07:50 050 11 gusting 15 3.2
2019-Nov-14 07:40 051 12 gusting 14 3.0
2019-Nov-14 07:30 052 10 gusting 14 2.9
2019-Nov-14 07:20 047 10 gusting 13 2.9
2019-Nov-14 07:10 046 11 gusting 14 3.0
2019-Nov-14 07:00 045 10 gusting 14 2.9
2019-Nov-14 06:50 054 12 gusting 15 3.2
2019-Nov-14 06:40 050 12 gusting 14 3.1
2019-Nov-14 06:30 049 11 gusting 14 3.2
2019-Nov-14 06:20 049 12 gusting 13 3.3
2019-Nov-14 06:10 054 11 gusting 13 3.4
2019-Nov-14 06:00 061 12 gusting 15 3.3
2019-Nov-14 05:50 049 11 gusting 15 3.3
2019-Nov-14 05:40 055 15 gusting 17 3.4
2019-Nov-14 05:30 055 13 gusting 16 3.3
2019-Nov-14 05:20 051 14 gusting 16 3.4
2019-Nov-14 05:10 056 14 gusting 16 3.6
2019-Nov-14 05:00 053 13 gusting 17 3.7
2019-Nov-14 04:50 050 14 gusting 17 4.0
2019-Nov-14 04:40 046 13 gusting 17 3.9
2019-Nov-14 04:30 050 13 gusting 16 4.3
2019-Nov-14 04:20 044 14 gusting 17 4.3
2019-Nov-14 04:10 039 14 gusting 17 4.3
2019-Nov-14 04:00 041 13 gusting 17 4.3
2019-Nov-14 03:50 039 14 gusting 17 4.4
2019-Nov-14 03:40 050 14 gusting 17 4.4
2019-Nov-14 03:30 044 15 gusting 18 4.6
2019-Nov-14 03:20 045 16 gusting 17 4.6
2019-Nov-14 03:10 050 15 gusting 17 4.6
2019-Nov-14 03:00 047 15 gusting 19 4.9
2019-Nov-14 02:50 047 15 gusting 18 5.1
2019-Nov-14 02:40 049 15 gusting 17 5.1
2019-Nov-14 02:30 046 15 gusting 18 5.1
2019-Nov-14 02:20 045 14 gusting 17 5.1
2019-Nov-14 02:10 047 14 gusting 16 5.3
2019-Nov-14 02:00 043 14 gusting 17 5.6
2019-Nov-14 01:50 043 14 gusting 15 5.6
2019-Nov-14 01:30 037 14 gusting 16 6.1
2019-Nov-14 01:20 037 13 gusting 16 6.3
2019-Nov-14 01:10 032 13 gusting 16 6.4
2019-Nov-14 01:00 038 13 gusting 16 6.6
2019-Nov-14 00:50 035 13 gusting 16 6.7
2019-Nov-14 00:40 035 14 gusting 16 6.8
2019-Nov-14 00:30 040 12 gusting 15 6.7
2019-Nov-14 00:20 040 13 gusting 15 6.8
2019-Nov-14 00:10 044 12 gusting 13 6.7
2019-Nov-14 00:00 048 12 gusting 14 6.8
2019-Nov-13 23:50 064 10 gusting 12 6.7
2019-Nov-13 23:40 060 10 gusting 11 6.8
2019-Nov-13 23:30 068 9 gusting 11 6.7
2019-Nov-13 23:20 075 8 gusting 11 6.7
2019-Nov-13 23:10 062 8 gusting 10 6.7
2019-Nov-13 23:00 072 7 gusting 10 6.7
2019-Nov-13 22:50 077 8 gusting 10 6.7
2019-Nov-13 22:40 068 8 gusting 10 6.7
2019-Nov-13 22:30 079 6 gusting 10 6.7
2019-Nov-13 22:20 083 6 gusting 9 6.7
2019-Nov-13 22:10 073 7 gusting 9 6.9
2019-Nov-13 22:00 070 6 gusting 10 7.2
2019-Nov-13 21:50 089 5 gusting 10 7.2
2019-Nov-13 21:40 070 7 gusting 10 7.2
2019-Nov-13 21:30 077 7 gusting 10 7.3
2019-Nov-13 21:20 053 8 gusting 10 7.4
2019-Nov-13 21:10 052 7 gusting 10 7.4
2019-Nov-13 21:00 082 8 gusting 11 7.3
2019-Nov-13 20:50 068 7 gusting 11 7.4
2019-Nov-13 20:40 071 8 gusting 11 7.3
2019-Nov-13 20:30 044 6 gusting 10 7.2
2019-Nov-13 20:20 057 7 gusting 10 7.2
2019-Nov-13 20:10 059 7 gusting 11 7.2
2019-Nov-13 20:00 016 6 gusting 11 6.8
2019-Nov-13 19:50 023 7 gusting 12 6.7
2019-Nov-13 19:40 047 6 gusting 10 6.7
2019-Nov-13 19:30 048 9 gusting 11 6.7
2019-Nov-13 19:20 042 3 gusting 10 6.3
2019-Nov-13 19:10 056 7 gusting 9 6.2
2019-Nov-13 19:00 058 9 gusting 10 6.1
2019-Nov-13 18:50 038 7 gusting 10 6.1
2019-Nov-13 18:40 071 7 gusting 12 5.8
2019-Nov-13 18:30 041 8 gusting 11 5.7
2019-Nov-13 18:20 039 5 gusting 10 5.6
2019-Nov-13 18:10 043 7 gusting 10 5.4
2019-Nov-13 18:00 052 7 gusting 11 5.0
2019-Nov-13 17:50 036 7 gusting 12 4.9
2019-Nov-13 17:40 025 8 gusting 10 4.5
2019-Nov-13 17:30 051 6 gusting 11 4.4
2019-Nov-13 17:20 038 9 gusting 13 4.0
2019-Nov-13 17:10 015 6 gusting 13 3.9
2019-Nov-13 17:00 022 10 gusting 14 3.7
2019-Nov-13 16:50 020 11 gusting 14 3.4
2019-Nov-13 16:40 024 8 gusting 13 3.3
2019-Nov-13 16:30 043 7 gusting 12 3.0
2019-Nov-13 16:20 034 8 gusting 12 2.8
2019-Nov-13 16:10 040 9 gusting 11 2.5
2019-Nov-13 16:00 037 8 gusting 12 2.3
2019-Nov-13 15:50 052 10 gusting 12 2.2
2019-Nov-13 15:40 028 10 gusting 14 2.0
2019-Nov-13 15:30 060 12 gusting 17 1.7
2019-Nov-13 15:20 045 10 gusting 15 1.7
2019-Nov-13 15:10 044 10 gusting 15 1.3
2019-Nov-13 15:00 040 11 gusting 15 1.1
2019-Nov-13 14:50 046 12 gusting 16 1.0
2019-Nov-13 14:40 043 11 gusting 17 0.9
2019-Nov-13 14:30 033 11 gusting 17 0.7
2019-Nov-13 14:20 045 14 gusting 19 0.6
2019-Nov-13 14:10 051 14 gusting 21 0.6
2019-Nov-13 14:00 046 14 gusting 21 0.4
2019-Nov-13 13:50 050 14 gusting 20 0.3
2019-Nov-13 13:40 050 15 gusting 20 0.2
2019-Nov-13 13:30 050 14 gusting 18 0.1
2019-Nov-13 13:20 047 15 gusting 21 0.1
2019-Nov-13 13:10 040 16 gusting 21 0.0
2019-Nov-13 13:00 040 15 gusting 21 -0.1
2019-Nov-13 12:50 034 15 gusting 22 -0.1
2019-Nov-13 12:40 046 16 gusting 24 -0.1
2019-Nov-13 12:30 038 15 gusting 19 -0.1
2019-Nov-13 12:20 036 16 gusting 23 -0.3
2019-Nov-13 12:10 036 15 gusting 20 0.1
2019-Nov-13 12:00 039 16 gusting 21 -0.0
2019-Nov-13 11:50 030 16 gusting 22 -0.1
2019-Nov-13 11:40 035 16 gusting 21 0.1
2019-Nov-13 11:30 031 15 gusting 22 0.1
2019-Nov-13 11:20 031 16 gusting 21 0.1
2019-Nov-13 11:10 029 16 gusting 21 0.3
2019-Nov-13 11:00 030 17 gusting 23 0.4
2019-Nov-13 10:50 028 19 gusting 24 0.3
2019-Nov-13 10:40 029 16 gusting 22 0.2
2019-Nov-13 10:30 033 17 gusting 23 0.2
2019-Nov-13 10:20 031 16 gusting 21 0.4
2019-Nov-13 10:10 031 18 gusting 22 0.4
2019-Nov-13 10:00 027 16 gusting 21 0.4
2019-Nov-13 09:50 024 18 gusting 22 0.5
2019-Nov-13 09:40 034 16 gusting 23 0.6
2019-Nov-13 09:30 036 17 gusting 21 0.5
2019-Nov-13 09:20 032 15 gusting 23 0.6
2019-Nov-13 09:10 026 17 gusting 22 0.4
2019-Nov-13 09:00 040 17 gusting 23 0.6
2019-Nov-13 08:50 026 20 gusting 26 0.8
2019-Nov-13 08:40 029 18 gusting 24 1.1
2019-Nov-13 08:30 031 18 gusting 22 1.5
2019-Nov-13 08:20 017 20 gusting 26 1.2
2019-Nov-13 08:10 028 22 gusting 26 1.1
2019-Nov-13 08:00 018 20 gusting 26 1.1
2019-Nov-13 07:50 026 20 gusting 27 1.2
2019-Nov-13 07:40 029 22 gusting 26 1.3
2019-Nov-13 07:30 020 20 gusting 29 1.3
2019-Nov-13 07:20 017 20 gusting 25 1.5
2019-Nov-13 07:10 023 21 gusting 27 1.7
2019-Nov-13 07:00 020 22 gusting 28 1.6
2019-Nov-13 06:50 022 21 gusting 25 1.7
2019-Nov-13 06:40 031 21 gusting 26 1.9
2019-Nov-13 06:30 029 21 gusting 24 2.2
2019-Nov-13 06:20 025 20 gusting 25 2.3
2019-Nov-13 06:10 020 18 gusting 26 2.4
2019-Nov-13 06:00 012 19 gusting 23 2.8
2019-Nov-13 05:50 022 17 gusting 25 2.5
2019-Nov-13 05:40 026 20 gusting 27 2.8
2019-Nov-13 05:30 014 21 gusting 25 3.0
2019-Nov-13 05:20 021 19 gusting 27 3.1
2019-Nov-13 05:10 016 21 gusting 27 3.4
2019-Nov-13 05:00 013 20 gusting 27 3.4